Weather History for Texarkana, AR

Change the Weather History Date:

Sunday, December 8, 2013

  Actual Average Record
Temperature  
Mean Temperature 31 °F 47 °F  
Max Temperature 36 °F 57 °F 80 °F (1923)
Min Temperature 25 °F 37 °F 14 °F (1927)
Degree Days  
Heating Degree Days 34 18  
Month to date heating degree days 139 139  
Since 1 July heating degree days 664 597  
Cooling Degree Days 0 0  
Month to date cooling degree days 0 0  
Year to date cooling degree days 2352 2204  
Moisture  
Dew Point 28 °F    
Average Humidity 86    
Maximum Humidity 96    
Minimum Humidity 75    
Precipitation  
Precipitation T in 0.17 in 2.11 in (1978)
Month to date precipitation 2.25 1.45  
Year to date precipitation 41.76 46.05  
Snow  
Snow 0.00 in - - ()
Month to date snowfall T  
Since 1 July snowfall 0.1  
Snow Depth 0.00 in    
Sea Level Pressure  
Sea Level Pressure 30.17 in    
Wind  
Wind Speed 3 mph (ESE)    
Max Wind Speed 7 mph    
Max Gust Speed 12 mph    
Visibility 6 miles    
Events Rain    
T = Trace of Precipitation, MM = Missing Value Source: NWS Daily Summary

Daily Weather History Graph

Daily Weather History Graph

Search for Another Location

Airport:

Trip Planner

Search our weather history database for the weather conditions in past years. The results will help you decide how hot, cold, wet, or windy it might be!

Date:

Astronomy

Dec. 08, 2013 Rise Set
Actual Time 7:07 AM CST 5:08 PM CST
Civil Twilight 6:40 AM CST 5:35 PM CST
Nautical Twilight 6:09 AM CST 6:06 PM CST
Astronomical Twilight 5:39 AM CST 6:36 PM CST
Moon 11:42 AM CST (12/8) 11:43 PM CST (12/8)
Length of Visible Light 10h 55m
Length of Day
10h 00m
Waxing Crescent, 40% of the Moon is Illuminated
Dec 8
Waxing Crescent
Dec 9
First Quarter
Dec 17
Full
Dec 25
Last Quarter
Jan 1
New

Hourly Weather History & Observations

Time (CST) Temp. Windchill Dew Point Humidity Pressure Visibility Wind Dir Wind Speed Gust Speed Precip Events Conditions
12:53 AM 27.0 °F 20.5 °F 21.9 °F 81% 30.30 in 5.0 mi NE 5.8 mph - N/A   Haze
1:06 AM 26.6 °F 22.6 °F 23.0 °F 86% 30.28 in 3.0 mi NE 3.5 mph - 0.00 in Rain Light Freezing Rain
1:23 AM 26.6 °F 22.6 °F 24.8 °F 93% 30.27 in 3.0 mi East 3.5 mph - 0.00 in Rain Light Freezing Rain
1:53 AM 26.1 °F 19.4 °F 23.0 °F 88% 30.27 in 4.0 mi East 5.8 mph - 0.00 in Rain Light Freezing Rain
2:05 AM 26.6 °F 22.6 °F 23.0 °F 86% 30.24 in 4.0 mi ENE 3.5 mph - 0.00 in   Overcast
2:53 AM 26.1 °F 21.9 °F 24.1 °F 92% 30.25 in 4.0 mi East 3.5 mph - 0.00 in   Overcast
3:53 AM 26.1 °F 21.9 °F 24.1 °F 92% 30.25 in 5.0 mi NE 3.5 mph - N/A   Overcast
4:53 AM 26.1 °F 20.5 °F 24.1 °F 92% 30.25 in 6.0 mi NE 4.6 mph - N/A   Overcast
5:53 AM 26.1 °F 20.5 °F 24.1 °F 92% 30.23 in 4.0 mi ENE 4.6 mph - N/A   Overcast
6:53 AM 26.1 °F 21.9 °F 24.1 °F 92% 30.22 in 4.0 mi East 3.5 mph - N/A   Overcast
7:53 AM 27.0 °F - 25.0 °F 92% 30.22 in 3.0 mi Calm Calm - N/A   Overcast
8:53 AM 27.0 °F 23.0 °F 25.0 °F 92% 30.21 in 3.0 mi ENE 3.5 mph - N/A   Overcast
9:53 AM 28.9 °F 25.2 °F 27.0 °F 92% 30.20 in 4.0 mi North 3.5 mph - N/A   Overcast
10:53 AM 30.0 °F - 27.0 °F 88% 30.20 in 6.0 mi Calm Calm - 0.00 in   Overcast
11:53 AM 32.0 °F - 28.0 °F 85% 30.16 in 6.0 mi Calm Calm - N/A   Overcast
12:53 PM 34.0 °F 31.0 °F 28.9 °F 82% 30.12 in 9.0 mi SSE 3.5 mph - N/A   Overcast
1:53 PM 35.1 °F 31.0 °F 28.9 °F 78% 30.10 in 10.0 mi SE 4.6 mph - N/A   Overcast
2:12 PM 35.6 °F 32.8 °F 30.2 °F 81% 30.09 in 10.0 mi Variable 3.5 mph - N/A   Overcast
2:53 PM 36.0 °F 31.1 °F 30.0 °F 79% 30.09 in 10.0 mi South 5.8 mph - N/A   Overcast
3:53 PM 36.0 °F - 30.0 °F 79% 30.09 in 10.0 mi Calm Calm - N/A   Overcast
4:53 PM 36.0 °F 33.3 °F 30.0 °F 79% 30.10 in 10.0 mi South 3.5 mph - N/A   Overcast
5:03 PM 35.6 °F 32.8 °F 30.2 °F 81% 30.09 in 10.0 mi SSE 3.5 mph - N/A   Overcast
5:53 PM 35.1 °F 31.0 °F 30.9 °F 85% 30.11 in 9.0 mi South 4.6 mph - N/A   Overcast
6:12 PM 35.6 °F 31.7 °F 30.2 °F 81% 30.11 in 9.0 mi South 4.6 mph - N/A   Overcast
6:29 PM 33.8 °F 29.6 °F 32.0 °F 93% 30.11 in 8.0 mi SSE 4.6 mph - N/A   Overcast
6:53 PM 34.0 °F 29.8 °F 32.0 °F 92% 30.13 in 8.0 mi South 4.6 mph - N/A   Overcast
7:53 PM 34.0 °F 31.0 °F 32.0 °F 92% 30.14 in 7.0 mi South 3.5 mph - N/A   Overcast
8:09 PM 35.6 °F 32.8 °F 33.8 °F 93% 30.13 in 8.0 mi SSE 3.5 mph - N/A   Overcast
8:18 PM 35.6 °F 32.8 °F 33.8 °F 93% 30.13 in 7.0 mi SSE 3.5 mph - N/A   Overcast
8:53 PM 35.1 °F 31.0 °F 33.1 °F 92% 30.15 in 6.0 mi South 4.6 mph - N/A   Overcast
9:53 PM 35.1 °F 32.2 °F 33.1 °F 92% 30.17 in 6.0 mi SSW 3.5 mph - N/A   Overcast
10:53 PM 36.0 °F - 34.0 °F 93% 30.18 in 6.0 mi Calm Calm - N/A   Overcast
11:53 PM 35.1 °F 32.2 °F 34.0 °F 96% 30.18 in 3.0 mi ENE 3.5 mph - N/A   Overcast